Port Hope, MI

6:48 AM EDT on May 29, 2017 (GMT -0400)
Port Hope

Weather History for KP58 - April, 2013

Change the Weather History Date:

Sunday, April 28, 2013

  Actual Average Record
Temperature  
Mean Temperature 54 °F -  
Max Temperature 64 °F 52 °F 77 °F (2003)
Min Temperature 45 °F 38 °F 28 °F (2012)
Degree Days  
Heating Degree Days 12    
Growing Degree Days 4 (Base 50)    
Moisture  
Dew Point 43 °F    
Average Humidity 72    
Maximum Humidity 96    
Minimum Humidity 50    
Precipitation  
Precipitation 0.00 in - - ()
Sea Level Pressure  
Sea Level Pressure 29.97 in    
Wind  
Wind Speed 8 mph (SE)    
Max Wind Speed 17 mph    
Max Gust Speed 25 mph    
Averages and records for this station are not official NWS values.
T = Trace of Precipitation, MM = Missing Value Source: NWS Daily Summary

Daily Weather History Graph

Daily Weather History Graph

Search for Another Location

Airport or City:

Trip Planner

Search our weather history database for the weather conditions in past years. The results will help you decide how hot, cold, wet, or windy it might be!

Date:

Astronomy

Apr. 28, 2013 Rise Set
Actual Time 6:26 AM EDT 8:31 PM EDT
Civil Twilight 5:55 AM EDT 9:02 PM EDT
Nautical Twilight 5:16 AM EDT 9:41 PM EDT
Astronomical Twilight 4:34 AM EDT 10:24 PM EDT
Moon No Moon Rise 8:38 AM EDT (4/28)
Length of Visible Light 15h 07m
Length of Day
14h 04m
Waning Gibbous, 89% of the Moon is Illuminated
Apr 28
Waning Gibbous
May 2
Last Quarter
May 9
New
May 18
First Quarter
May 25
Full

Hourly Weather History & Observations

Time (EDT) Temp. Windchill Dew Point Humidity Pressure Visibility Wind Dir Wind Speed Gust Speed Precip Events Conditions
12:51 AM 53.1 °F - 36.0 °F 52% 30.10 in - South 3.5 mph - N/A   Unknown
1:51 AM 53.1 °F - 35.1 °F 50% 30.09 in - South 4.6 mph - N/A   Unknown
2:51 AM 51.1 °F - 35.1 °F 54% 30.08 in - South 3.5 mph - N/A   Unknown
3:51 AM 51.1 °F - 34.0 °F 52% 30.06 in - SSE 3.5 mph - N/A   Unknown
4:51 AM 46.9 °F - 43.0 °F 86% 30.05 in - ESE 5.8 mph - N/A   Unknown
5:51 AM 45.0 °F 42.6 °F 39.0 °F 80% 30.04 in - ESE 4.6 mph - N/A   Unknown
6:51 AM 46.9 °F - 37.9 °F 71% 30.04 in - ESE 4.6 mph - N/A   Unknown
7:51 AM 46.9 °F - 39.0 °F 74% 30.03 in - ESE 10.4 mph - N/A   Unknown
8:51 AM 48.0 °F - 41.0 °F 77% 30.02 in - ESE 11.5 mph - N/A   Unknown
9:51 AM 53.1 °F - 39.9 °F 61% 30.00 in - SE 9.2 mph - N/A   Unknown
10:51 AM 54.0 °F - 41.0 °F 62% 29.99 in - SE 8.1 mph - N/A   Unknown
11:51 AM 54.0 °F - 45.0 °F 72% 29.98 in - ESE 10.4 mph - N/A   Unknown
12:51 PM 55.9 °F - 46.0 °F 69% 29.96 in - ESE 17.3 mph - N/A   Unknown
1:51 PM 61.0 °F - 45.0 °F 56% 29.94 in - SE 13.8 mph - N/A   Unknown
2:51 PM 62.1 °F - 44.1 °F 52% 29.93 in - SE 17.3 mph 25.3 mph N/A   Unknown
3:51 PM 61.0 °F - 45.0 °F 56% 29.93 in - SE 15.0 mph 20.7 mph N/A   Unknown
4:51 PM 57.9 °F - 48.0 °F 70% 29.92 in - SSE 13.8 mph 20.7 mph N/A   Unknown
5:51 PM 55.9 °F - 50.0 °F 80% 29.91 in - SSE 9.2 mph 20.7 mph N/A   Unknown
6:51 PM 54.0 °F - 50.0 °F 86% 29.91 in - SE 12.7 mph 19.6 mph N/A   Unknown
7:51 PM 52.0 °F - 48.9 °F 89% 29.89 in - SE 11.5 mph 19.6 mph N/A   Unknown
8:51 PM 52.0 °F - 50.0 °F 93% 29.89 in - SE 10.4 mph 16.1 mph N/A   Unknown
9:51 PM 52.0 °F - 50.0 °F 93% 29.88 in - SE 10.4 mph - N/A   Unknown
10:51 PM 51.1 °F - 48.9 °F 92% 29.88 in - ESE 11.5 mph - N/A   Unknown
11:51 PM 50.0 °F - 48.9 °F 96% 29.88 in - SE 8.1 mph - N/A   Unknown